CW5456 Weather Reports


Display with metric or nautical units.
time (UTC)temp
F
wind
direction
speed
MPH
gust
MPH
rain 1hr
in
rain 24hr
in
rain mn
in
humidity
%
barometer
mb
20190120194538 45 208 3.0 20.0 0.00 0.00 0.00 85 1010.9
20190120194035 45 249 11.0 20.0 0.00 0.00 0.00 85 1010.9
20190120193534 45 234 9.0 18.0 0.00 0.00 0.00 84 1011.0
20190120193035 45 227 10.0 18.0 0.00 0.00 0.00 84 1011.1
20190120192535 45 309 13.0 18.0 0.00 0.00 0.00 84 1011.2
20190120192034 45 246 6.0 16.0 0.00 0.00 0.00 85 1011.3
20190120191537 45 242 11.0 16.0 0.00 0.00 0.00 84 1011.3
20190120191034 45 245 11.0 15.0 0.00 0.00 0.00 85 1011.4
20190120190534 45 285 4.0 19.0 0.00 0.00 0.00 85 1011.6
20190120190034 45 295 14.0 19.0 0.00 0.00 0.00 84 1011.7
20190120185533 45 212 5.0 15.0 0.00 0.00 0.00 85 1011.7
20190120185033 45 262 4.0 17.0 0.00 0.00 0.00 86 1011.7
20190120184536 45 289 6.0 17.0 0.00 0.00 0.00 86 1011.8
20190120184033 45 233 4.0 12.0 0.00 0.00 0.00 87 1011.8
20190120183533 45 301 10.0 15.0 0.00 0.00 0.00 87 1011.7
20190120183036 45 332 4.0 15.0 0.00 0.00 0.00 86 1011.6
20190120182533 45 270 7.0 16.0 0.00 0.00 0.00 86 1011.7
20190120182032 45 258 6.0 17.0 0.00 0.00 0.00 86 1011.7
20190120181535 45 237 12.0 21.0 0.00 0.00 0.00 86 1011.7
20190120181032 45 274 16.0 21.0 0.00 0.00 0.00 86 1011.7
20190120180532 45 233 6.0 17.0 0.00 0.00 0.00 86 1011.8
20190120180035 45 283 10.0 19.0 0.00 0.00 0.00 86 1011.7
20190120175532 45 268 3.0 19.0 0.00 0.00 0.00 86 1011.7
20190120175034 45 295 14.0 18.0 0.00 0.00 0.00 86 1011.7
20190120174531 45 241 8.0 19.0 0.00 0.00 0.00 86 1011.7
20190120174031 45 235 13.0 19.0 0.00 0.00 0.00 86 1011.7
20190120173531 45 309 8.0 17.0 0.00 0.00 0.00 86 1011.8
20190120173031 45 235 14.0 19.0 0.00 0.00 0.00 86 1011.8
20190120172531 45 243 6.0 19.0 0.00 0.00 0.00 86 1011.8
20190120172031 44 215 8.0 15.0 0.00 0.00 0.00 86 1011.9
20190120171531 45 266 5.0 15.0 0.00 0.00 0.00 86 1011.9
20190120171030 45 277 10.0 12.0 0.00 0.00 0.00 86 1011.9
20190120170530 45 220 4.0 12.0 0.00 0.00 0.00 85 1011.8
20190120170030 44 258 7.0 15.0 0.00 0.00 0.00 86 1011.9
20190120165530 45 216 0.0 15.0 0.00 0.00 0.00 86 1011.9
20190120165033 45 233 3.0 16.0 0.00 0.00 0.00 86 1011.9
20190120164533 45 278 11.0 19.0 0.00 0.00 0.00 87 1011.9
20190120164030 44 268 10.0 21.0 0.00 0.00 0.00 87 1012.0
20190120163529 44 291 16.0 21.0 0.00 0.00 0.00 87 1011.9
20190120163029 44 262 12.0 18.0 0.00 0.00 0.00 87 1011.9
20190120162532 44 292 12.0 20.0 0.00 0.00 0.00 87 1011.9
20190120162029 44 275 16.0 21.0 0.00 0.00 0.00 88 1011.9
20190120161529 44 247 9.0 21.0 0.00 0.00 0.00 88 1011.9
20190120161032 44 300 13.0 20.0 0.00 0.00 0.00 89 1012.0
20190120160528 44 235 3.0 18.0 0.00 0.00 0.00 89 1012.1
20190120160028 44 243 10.0 19.0 0.00 0.00 0.00 89 1012.1
20190120155528 43 278 15.0 19.0 0.00 0.00 0.00 89 1012.2
20190120155028 43 237 6.0 17.0 0.00 0.00 0.00 90 1012.3
20190120154531 43 218 3.0 17.0 0.00 0.00 0.00 90 1012.3
20190120154031 43 332 10.0 17.0 0.00 0.00 0.00 90 1012.3
20190120153528 44 235 8.0 17.0 0.00 0.00 0.00 90 1012.3
20190120153031 44 231 6.0 18.0 0.00 0.00 0.00 89 1012.4
20190120152530 44 327 13.0 23.0 0.00 0.00 0.00 89 1012.6
20190120152027 44 332 9.0 25.0 0.00 0.00 0.00 88 1012.6
20190120151530 44 327 17.0 25.0 0.00 0.00 0.00 87 1012.6
20190120151030 44 258 17.0 22.0 0.00 0.00 0.00 91 1012.6
20190120150530 43 235 14.0 17.0 0.00 0.00 0.00 91 1012.6
20190120150027 43 250 4.0 16.0 0.00 0.00 0.00 91 1012.6
20190120145527 44 260 10.0 14.0 0.00 0.00 0.00 91 1012.6
20190120145027 44 341 4.0 15.0 0.00 0.00 0.00 91 1012.6
20190120144527 44 230 6.0 17.0 0.00 0.00 0.00 91 1012.7
20190120144026 44 245 10.0 17.0 0.00 0.00 0.00 91 1012.8
20190120143529 44 235 6.0 17.0 0.00 0.00 0.00 91 1012.9
20190120143026 44 256 10.0 16.0 0.00 0.00 0.00 91 1012.9
20190120142529 44 260 8.0 16.0 0.00 0.00 0.00 91 1013.0
20190120142026 44 244 6.0 18.0 0.00 0.00 0.00 91 1013.1
20190120141526 44 252 14.0 18.0 0.00 0.00 0.00 91 1013.1
20190120141025 44 238 11.0 15.0 0.00 0.00 0.00 91 1013.2
20190120140528 44 272 12.0 18.0 0.00 0.00 0.00 91 1013.4
20190120140025 44 231 10.0 18.0 0.00 0.00 0.00 92 1013.5
20190120135528 44 279 16.0 17.0 0.00 0.00 0.00 92 1013.5
20190120135025 44 241 14.0 16.0 0.00 0.00 0.00 93 1013.7
20190120134525 44 304 10.0 16.0 0.00 0.00 0.00 93 1013.7
20190120134024 44 297 10.0 15.0 0.00 0.00 0.00 94 1013.8
20190120133525 44 249 12.0 13.0 0.00 0.00 0.00 94 1013.7
20190120133024 43 247 8.0 12.0 0.00 0.00 0.00 94 1014.0
20190120132524 43 237 7.0 12.0 0.00 0.00 0.00 94 1014.0
20190120132024 43 247 7.0 11.0 0.00 0.00 0.00 94 1014.1
20190120131524 43 268 2.0 11.0 0.00 0.00 0.00 95 1014.2
20190120131026 42 247 4.0 10.0 0.00 0.00 0.00 94 1014.1
20190120130523 41 270 5.0 5.0 0.00 0.00 0.00 94 1014.3
20190120130023 41 307 0.0 4.0 0.00 0.00 0.00 94 1014.5
20190120125526 41 306 2.0 4.0 0.00 0.00 0.00 93 1014.6
20190120125023 41 307 1.0 4.0 0.00 0.00 0.00 93 1014.8
20190120124523 41 307 0.0 3.0 0.00 0.00 0.00 93 1014.8
20190120124026 42 307 0.0 5.0 0.00 0.00 0.00 94 1014.9
20190120123522 42 307 0.0 7.0 0.00 0.00 0.00 94 1015.0
20190120123023 42 295 1.0 7.0 0.00 0.00 0.00 94 1015.0
20190120122525 41 250 2.0 7.0 0.00 0.00 0.00 94 1015.2
20190120122022 40 263 4.0 4.0 0.00 0.00 0.00 94 1015.3
20190120121522 40 262 1.0 4.0 0.00 0.00 0.00 94 1015.5
20190120121025 40 262 3.0 4.0 0.00 0.00 0.00 93 1015.5
20190120120522 40 147 1.0 3.0 0.00 0.00 0.00 93 1015.6
20190120120025 40 146 2.0 3.0 0.00 0.00 0.00 93 1015.6
20190120115522 40 145 0.0 1.0 0.00 0.00 0.00 93 1015.5
20190120115021 40 145 0.0 0.0 0.00 0.00 0.00 93 1015.6
20190120114524 40 145 0.0 0.0 0.00 0.00 0.00 93 1015.7
20190120114021 40 145 0.0 0.0 0.00 0.00 0.00 93 1015.8
20190120113521 40 145 0.0 0.0 0.00 0.00 0.00 93 1015.9
20190120113024 40 145 0.0 0.0 0.00 0.00 0.00 93 1015.9
20190120112520 40 145 0.0 0.0 0.00 0.00 0.00 93 1016.1
20190120112024 40 145 0.0 0.0 0.00 0.00 0.00 93 1016.2
20190120111524 40 145 0.0 0.0 0.00 0.00 0.00 93 1016.3
20190120111020 40 145 0.0 2.0 0.00 0.00 0.00 93 1016.4
20190120110520 40 145 0.0 2.0 0.00 0.00 0.00 93 1016.4
20190120110023 40 145 0.0 3.0 0.00 0.00 0.00 93 1016.4
20190120105520 40 145 2.0 3.0 0.00 0.00 0.00 93 1016.6
20190120105020 40 145 3.0 3.0 0.00 0.00 0.00 93 1016.6
20190120104519 40 145 1.0 5.0 0.00 0.00 0.00 93 1016.7
20190120104019 40 145 2.0 5.0 0.00 0.00 0.00 93 1016.7
20190120103519 40 145 2.0 3.0 0.00 0.00 0.00 93 1016.7
20190120103019 40 145 2.0 3.0 0.00 0.00 0.00 93 1016.7
20190120102519 40 145 1.0 3.0 0.00 0.00 0.00 93 1016.8
20190120102019 40 145 2.0 3.0 0.00 0.00 0.00 93 1016.9
20190120101521 40 145 1.0 2.0 0.00 0.00 0.00 93 1016.9
20190120101018 40 145 1.0 2.0 0.00 0.00 0.00 93 1016.9
20190120100521 40 145 2.0 2.0 0.00 0.00 0.00 92 1017.0
20190120100018 40 145 2.0 2.0 0.00 0.00 0.00 93 1017.1
20190120095518 40 145 0.0 0.0 0.00 0.00 0.00 92 1017.2
20190120095018 40 145 0.0 0.0 0.00 0.00 0.00 92 1017.3
20190120094521 40 145 0.0 0.0 0.00 0.00 0.00 92 1017.3
20190120094018 40 145 0.0 0.0 0.00 0.00 0.00 92 1017.4
20190120093518 40 145 0.0 0.0 0.00 0.00 0.00 92 1017.4
20190120093017 40 145 0.0 0.0 0.00 0.00 0.00 92 1017.5
20190120092517 40 145 0.0 0.0 0.00 0.00 0.00 92 1017.6
20190120092020 40 145 0.0 0.0 0.00 0.00 0.00 92 1017.7
20190120091517 40 145 0.0 0.0 0.00 0.00 0.00 92 1017.7
20190120091017 40 145 0.0 0.0 0.00 0.00 0.00 92 1017.9
20190120090517 40 145 0.0 2.0 0.00 0.00 0.00 92 1018.0
20190120090017 40 145 0.0 2.0 0.00 0.01 0.00 92 1018.0
20190120085519 40 145 2.0 2.0 0.00 0.01 0.00 92 1018.2
20190120085016 40 145 0.0 2.0 0.00 0.01 0.00 92 1018.3
20190120084516 40 145 1.0 2.0 0.00 0.01 0.00 92 1018.4
20190120084016 40 145 0.0 0.0 0.00 0.01 0.00 92 1018.4
20190120083516 40 145 0.0 0.0 0.00 0.01 0.00 92 1018.5
20190120083015 41 145 0.0 0.0 0.00 0.01 0.00 92 1018.7
20190120082516 41 145 0.0 0.0 0.00 0.01 0.00 92 1018.7
20190120082015 41 145 0.0 3.0 0.00 0.01 0.00 92 1018.8
20190120081515 41 145 0.0 5.0 0.00 0.01 0.00 92 1018.8
20190120081015 41 145 3.0 5.0 0.00 0.01 0.00 92 1018.8
20190120080518 41 145 3.0 5.0 0.00 0.01 0.00 91 1018.8
20190120080014 41 145 3.0 5.0 0.00 0.01 0.00 91 1018.8
20190120075515 41 145 3.0 5.0 0.00 0.01 0.01 91 1018.8
20190120075015 41 150 2.0 3.0 0.00 0.01 0.01 91 1018.9
20190120074514 41 150 2.0 4.0 0.00 0.01 0.01 91 1019.1
20190120074014 41 150 2.0 4.0 0.00 0.01 0.01 91 1019.1
20190120073514 41 150 3.0 5.0 0.00 0.01 0.01 91 1019.2
20190120073014 41 150 3.0 6.0 0.00 0.01 0.01 91 1019.3
20190120072514 41 145 3.0 6.0 0.00 0.01 0.01 91 1019.2
20190120072013 41 137 4.0 6.0 0.00 0.01 0.01 91 1019.2
20190120071513 41 138 3.0 6.0 0.00 0.01 0.01 91 1019.2
20190120071014 41 132 4.0 7.0 0.00 0.01 0.01 91 1019.3
20190120070513 41 130 3.0 7.0 0.00 0.01 0.01 91 1019.3
20190120070013 41 129 3.0 7.0 0.00 0.01 0.01 91 1019.3
20190120065513 41 131 4.0 6.0 0.00 0.01 0.01 91 1019.3
20190120065016 41 137 5.0 6.0 0.00 0.02 0.01 91 1019.4
20190120064515 41 137 4.0 5.0 0.00 0.02 0.01 90 1019.5
20190120064016 41 137 4.0 5.0 0.00 0.02 0.01 90 1019.4
20190120063513 41 137 4.0 5.0 0.00 0.02 0.01 90 1019.4
20190120063012 41 137 2.0 5.0 0.00 0.02 0.01 90 1019.5
20190120062542 41 137 4.0 8.0 0.00 0.02 0.01 90 1019.4
20190120062012 42 137 2.0 8.0 0.00 0.02 0.01 90 1019.4
20190120061512 42 131 4.0 8.0 0.00 0.02 0.01 90 1019.3
20190120061014 41 121 4.0 8.0 0.00 0.02 0.01 91 1019.3
20190120060512 41 127 4.0 8.0 0.00 0.03 0.01 91 1019.4
20190120060011 42 121 4.0 8.0 0.00 0.03 0.01 90 1019.4
20190120055514 42 131 5.0 7.0 0.00 0.03 0.01 90 1019.5
20190120055011 42 135 4.0 7.0 0.00 0.03 0.01 90 1019.4
20190120054511 42 131 6.0 7.0 0.00 0.03 0.01 90 1019.4
20190120054011 42 126 3.0 6.0 0.00 0.03 0.01 90 1019.4
20190120053510 42 127 4.0 6.0 0.00 0.03 0.01 90 1019.2
20190120053010 42 127 1.0 6.0 0.00 0.03 0.01 90 1019.2
20190120052510 42 124 3.0 4.0 0.00 0.03 0.01 90 1019.2
20190120052040 42 116 1.0 6.0 0.00 0.03 0.01 90 1019.2
20190120051510 42 116 2.0 6.0 0.00 0.03 0.01 90 1019.3
20190120051040 42 129 3.0 5.0 0.00 0.03 0.01 90 1019.2
20190120050543 42 123 3.0 6.0 0.00 0.03 0.01 90 1019.1
20190120050040 42 125 3.0 6.0 0.00 0.03 0.01 90 1019.1
20190120045509 43 137 2.0 5.0 0.00 0.04 0.01 90 1019.1
20190120045039 43 135 4.0 6.0 0.00 0.04 0.01 90 1019.2
20190120044509 43 129 3.0 6.0 0.00 0.04 0.01 90 1019.2
20190120044039 43 135 5.0 6.0 0.00 0.04 0.01 89 1019.2
20190120043509 43 135 5.0 6.0 0.00 0.05 0.01 89 1019.2
20190120043038 43 143 2.0 6.0 0.00 0.06 0.01 89 1019.3
20190120042538 43 123 2.0 8.0 0.00 0.06 0.01 89 1019.2
20190120042041 43 148 5.0 8.0 0.00 0.06 0.01 89 1019.2
20190120041538 43 145 3.0 7.0 0.00 0.06 0.01 89 1019.3
20190120041008 43 129 2.0 6.0 0.00 0.06 0.01 89 1019.2
20190120040538 43 127 4.0 6.0 0.00 0.06 0.01 89 1019.2
20190120040038 44 127 3.0 7.0 0.00 0.06 0.01 89 1019.2
20190120035508 44 139 3.0 7.0 0.00 0.07 0.01 89 1019.3
20190120035008 44 112 3.0 7.0 0.00 0.07 0.01 89 1019.3
20190120034537 44 131 1.0 6.0 0.00 0.07 0.01 89 1019.4
20190120034037 44 131 5.0 6.0 0.00 0.07 0.01 89 1019.4
20190120033537 44 131 4.0 6.0 0.00 0.07 0.01 89 1019.3
20190120033037 44 110 4.0 6.0 0.00 0.07 0.01 89 1019.3
20190120032537 44 139 4.0 5.0 0.00 0.07 0.01 88 1019.4
20190120032036 44 139 0.0 5.0 0.00 0.07 0.01 88 1019.3
20190120031536 44 137 2.0 7.0 0.00 0.07 0.01 87 1019.4
20190120031036 45 127 3.0 7.0 0.00 0.07 0.01 88 1019.3
20190120030540 45 137 1.0 6.0 0.00 0.07 0.01 87 1019.2
20190120030039 45 137 2.0 5.0 0.00 0.08 0.01 87 1019.3
20190120025536 45 140 0.0 5.0 0.00 0.09 0.01 87 1019.3
20190120025036 45 140 2.0 8.0 0.00 0.09 0.01 86 1019.2
20190120024536 45 129 3.0 9.0 0.00 0.09 0.01 86 1019.2
20190120024035 45 164 2.0 9.0 0.00 0.09 0.01 87 1019.1
20190120023535 46 155 3.0 7.0 0.00 0.10 0.01 86 1019.0
20190120023035 46 112 1.0 7.0 0.00 0.10 0.01 86 1019.0
20190120022535 46 116 4.0 8.0 0.00 0.10 0.01 86 1019.0
20190120022038 46 138 3.0 8.0 0.00 0.10 0.01 86 1019.1
20190120021535 46 135 5.0 10.0 0.00 0.10 0.01 86 1019.2
20190120021034 46 156 4.0 10.0 0.00 0.11 0.01 86 1019.2
20190120020535 46 127 3.0 10.0 0.00 0.11 0.01 87 1019.1
20190120020034 46 125 2.0 10.0 0.00 0.11 0.01 87 1019.1
20190120015537 46 143 8.0 8.0 0.00 0.11 0.01 86 1019.2
20190120015034 46 107 1.0 6.0 0.00 0.11 0.01 85 1019.2
20190120014534 46 152 1.0 3.0 0.00 0.11 0.01 85 1019.1
20190120014037 46 153 3.0 3.0 0.00 0.11 0.01 85 1019.1
20190120013533 46 168 1.0 3.0 0.00 0.11 0.01 85 1019.1
20190120013034 46 168 3.0 3.0 0.00 0.11 0.01 85 1019.1
20190120012533 46 111 0.0 3.0 0.00 0.11 0.01 85 1019.0
20190120012033 46 111 0.0 3.0 0.00 0.11 0.01 85 1019.1
20190120011536 46 111 0.0 3.0 0.00 0.11 0.01 84 1019.0
20190120011033 46 100 2.0 2.0 0.00 0.11 0.01 84 1019.0
20190120010536 47 100 0.0 1.0 0.00 0.11 0.01 83 1019.0
20190120010036 47 100 0.0 2.0 0.00 0.11 0.01 83 1019.1
20190120005532 47 100 0.0 4.0 0.00 0.11 0.01 83 1019.0
20190120005036 47 100 0.0 4.0 0.00 0.11 0.01 83 1018.9
20190120004532 48 100 2.0 2.0 0.00 0.11 0.01 82 1019.0
20190120004032 48 100 0.0 2.0 0.00 0.11 0.01 81 1019.1
20190120003532 48 100 0.0 2.0 0.00 0.11 0.01 80 1019.1
20190120003032 49 100 0.0 3.0 0.00 0.11 0.01 80 1019.1
20190120002531 49 100 0.0 3.0 0.00 0.11 0.01 79 1019.1
20190120002031 49 100 0.0 5.0 0.00 0.11 0.01 79 1019.0
20190120001535 49 100 0.0 5.0 0.00 0.11 0.01 79 1018.9
20190120001031 49 145 1.0 7.0 0.00 0.11 0.01 79 1018.9
20190120000531 49 146 2.0 7.0 0.00 0.11 0.01 79 1018.9
20190120000034 49 135 2.0 9.0 0.00 0.11 0.01 79 1018.9
20190119235530 49 152 1.0 14.0 0.00 0.11 0.01 79 1018.8
20190119235030 49 131 2.0 14.0 0.00 0.11 0.01 79 1018.7
20190119234531 49 122 0.0 12.0 0.00 0.11 0.01 79 1018.7
20190119234031 50 87 3.0 9.0 0.00 0.11 0.01 79 1018.6
20190119233530 50 74 4.0 9.0 0.00 0.11 0.01 78 1018.6
20190119233030 50 127 2.0 8.0 0.00 0.11 0.01 78 1018.6
20190119232530 50 139 5.0 9.0 0.00 0.11 0.01 78 1018.6
20190119232033 50 98 4.0 9.0 0.00 0.11 0.01 78 1018.5
20190119231533 50 134 4.0 8.0 0.00 0.12 0.01 78 1018.6
20190119231029 50 142 6.0 9.0 0.00 0.12 0.01 77 1018.5
20190119230533 50 160 0.0 9.0 0.00 0.12 0.01 77 1018.5
20190119230032 51 107 1.0 9.0 0.00 0.12 0.01 76 1018.5
20190119225532 51 128 3.0 9.0 0.00 0.12 0.01 76 1018.6
20190119225029 51 149 0.0 9.0 0.00 0.12 0.01 75 1018.5
20190119224529 51 146 3.0 11.0 0.00 0.12 0.01 74 1018.3
20190119224029 51 104 7.0 12.0 0.00 0.12 0.01 74 1018.4
20190119223528 52 127 7.0 13.0 0.00 0.12 0.01 73 1018.3
20190119223031 52 137 5.0 13.0 0.00 0.12 0.01 72 1018.3
20190119222528 52 88 13.0 13.0 0.00 0.12 0.01 73 1018.4
20190119222028 52 117 9.0 11.0 0.00 0.12 0.01 72 1018.3
20190119221531 52 114 0.0 8.0 0.00 0.12 0.01 73 1018.1
20190119221028 52 118 2.0 11.0 0.00 0.12 0.01 73 1018.3
20190119220528 52 126 7.0 11.0 0.00 0.12 0.01 73 1018.1
20190119220027 51 120 5.0 8.0 0.00 0.12 0.01 75 1018.1
20190119215528 51 125 2.0 7.0 0.00 0.12 0.01 75 1018.1
20190119215027 51 175 1.0 7.0 0.00 0.12 0.01 74 1018.0
20190119214527 51 218 1.0 7.0 0.00 0.12 0.01 75 1018.0
20190119214027 52 343 2.0 6.0 0.00 0.12 0.01 75 1017.9
20190119213530 52 184 0.0 10.0 0.00 0.12 0.01 75 1017.8
20190119213026 52 171 3.0 11.0 0.00 0.12 0.01 77 1017.6
20190119212530 52 91 9.0 12.0 0.00 0.12 0.01 78 1017.5
20190119212027 51 122 5.0 12.0 0.00 0.12 0.01 78 1017.6
20190119211526 51 115 6.0 14.0 0.00 0.12 0.01 79 1017.5
20190119211029 51 100 3.0 14.0 0.00 0.12 0.01 79 1017.5
20190119210526 51 144 3.0 12.0 0.00 0.12 0.01 80 1017.7
20190119210025 51 118 3.0 11.0 0.00 0.12 0.01 79 1017.8
20190119205525 51 127 7.0 12.0 0.00 0.12 0.01 79 1017.8
20190119205026 51 162 4.0 12.0 0.00 0.12 0.01 78 1017.7
20190119204525 51 150 6.0 12.0 0.00 0.12 0.01 79 1017.7
20190119204025 51 136 9.0 16.0 0.00 0.12 0.01 78 1017.7
20190119203525 51 162 7.0 16.0 0.00 0.12 0.01 78 1017.6
20190119203025 51 177 3.0 15.0 0.00 0.12 0.01 78 1017.6
20190119202525 51 135 6.0 15.0 0.00 0.12 0.01 78 1017.6
20190119202025 51 129 3.0 14.0 0.00 0.12 0.01 78 1017.5
20190119201525 51 115 8.0 15.0 0.00 0.12 0.01 78 1017.5
20190119201027 51 116 6.0 15.0 0.00 0.12 0.01 77 1017.5
20190119200527 51 140 5.0 16.0 0.00 0.12 0.01 76 1017.4
20190119200027 51 137 4.0 18.0 0.00 0.12 0.01 76 1017.4
20190119195524 51 117 4.0 18.0 0.00 0.12 0.01 77 1017.3
20190119195024 51 112 7.0 16.0 0.00 0.12 0.01 76 1017.2